Flag for Latvia Weather past 2 weeks in Jelgava, Latvia

Now
32 °F

Fog.


Feels Like: 32 °F
Forecast: 45 / 60 °F
Wind: 2 mph from South

Location: Riga Airport

Current Time: Oct 2, 2014 at 8:14:05 AM

Latest Report: Oct 2, 2014 at 7:50 AM


Visibility: N/A

Pressure: 30.51 "Hg

Humidity: 100%

Dew point: 32 °F

Location of JelgavaLocation

Historic Weather in Jelgava — Graph

°F

Jelgava temperature yesterday

Maximum temperature yesterday: 55 °F (at 2:50 PM)
Minimum temperature yesterday: 34 °F (at 5:20 AM)
Average temperature yesterday: 44 °F

Past Weeks' High & Low Weather Summary

 TemperatureHumidityPressure
High68 °F (Sep 18, 1:50 PM)100% (Sep 17, 6:20 AM)30.51 "Hg (Sep 17, 6:20 AM)
Low32 °F (Oct 2, 5:50 AM)44% (Sep 24, 1:50 PM)29.47 "Hg (Sep 23, 1:20 AM)
Average52 °F83%30.01 "Hg
* Reported Sep 17 6:20 AM — Oct 2 6:50 AM, Jelgava, Weather by CustomWeather, © 2014

Note: Actual official high and low records may vary slightly from our data, if they occured in-between our weather recording intervals... More about our weather records

Advertising

Jelgava weather history for previous 24 hours

 ConditionsComfort  
Time TempWeatherWind HumidityBarometerVisibility
6:50 AM
Oct 2
32 °FFog.No wind100%30.48 "HgN/A
6:20 AM32 °FChilly.No wind100%30.48 "HgN/A
5:50 AM32 °FFog.No wind100%30.48 "HgN/A
5:20 AM34 °FLight fog.No wind100%30.48 "HgN/A
4:50 AM34 °FLight fog.No wind100%30.48 "HgN/A
4:20 AM34 °FChilly.No wind100%30.51 "HgN/A
3:50 AM34 °FFog.No wind100%30.51 "HgN/A
3:20 AM34 °FFog.No wind100%30.51 "HgN/A
2:50 AM34 °FFog.No wind100%30.51 "Hg5 mi
2:20 AM36 °FFog.2 mph100%30.51 "HgN/A
1:50 AM36 °FLight fog.2 mph100%30.48 "Hg6 mi
1:20 AM36 °FLight fog.2 mph100%30.48 "Hg6 mi
12:50 AM37 °FLight fog.No wind100%30.48 "HgN/A
12:20 AM37 °FChilly.1 mph100%30.48 "Hg3 mi
11:50 PM
Oct 1
37 °FLight fog.No wind100%30.48 "HgN/A
11:20 PM37 °FChilly.1 mph100%30.48 "HgN/A
10:50 PM39 °FClear.No wind100%30.48 "Hg6 mi
10:20 PM39 °FClear.No wind100%30.48 "Hg10 mi
9:50 PM39 °FClear.1 mph100%30.48 "Hg10 mi
9:20 PM43 °FClear.No wind93%30.48 "Hg10 mi
8:50 PM43 °FClear.2 mph93%30.48 "Hg10 mi
8:20 PM43 °FClear.1 mph93%30.48 "Hg10 mi
7:50 PM43 °FSunny.2 mph93%30.48 "Hg10 mi
7:20 PM48 °FSunny.5 mph82%30.45 "Hg10 mi
6:50 PM48 °FSunny.6 mph82%30.45 "Hg10 mi
6:20 PM52 °FPassing clouds.9 mph72%30.45 "HgN/A
5:50 PM52 °FPassing clouds.9 mph72%30.45 "HgN/A
5:20 PM54 °FScattered clouds.6 mph67%30.45 "HgN/A
4:50 PM52 °FScattered clouds.5 mph72%30.45 "HgN/A
4:20 PM55 °FScattered clouds.2 mph55%30.45 "HgN/A
3:50 PM55 °FScattered clouds.5 mph55%30.48 "HgN/A
3:20 PM55 °FScattered clouds.3 mph59%30.48 "HgN/A
2:50 PM55 °FScattered clouds.3 mph55%30.48 "HgN/A
2:20 PM54 °FScattered clouds.6 mph58%30.48 "HgN/A
1:50 PM54 °FScattered clouds.3 mph58%30.48 "HgN/A
1:20 PM54 °FScattered clouds.3 mph58%30.48 "HgN/A
12:50 PM54 °FScattered clouds.7 mph58%30.48 "HgN/A
12:20 PM54 °FPassing clouds.5 mph63%30.48 "HgN/A
11:50 AM52 °FPassing clouds.3 mph67%30.48 "HgN/A
11:20 AM52 °FSunny.2 mph67%30.48 "Hg10 mi
10:50 AM50 °FPassing clouds.3 mph71%30.48 "HgN/A
10:20 AM48 °FSunny.2 mph76%30.48 "Hg10 mi
9:50 AM46 °FSunny.2 mph87%30.48 "Hg10 mi
9:20 AM43 °FSunny.No wind93%30.45 "Hg10 mi
8:50 AM39 °FSunny.1 mph93%30.45 "Hg10 mi
8:20 AM34 °FClear.1 mph100%30.45 "Hg10 mi
Weather by CustomWeather, © 2014

See weather overviewHow to use our weather pages